STARLINK-1267, 45384

Orbit data source: Space-Track

STARLINK-1267, 45384 is a payload satellite owned by SpaceX/Seattle (US) in LEO that was launched on Wed, 18 Mar 2020 UTC via an FALCON 9 launch vehicle from the Air Force Eastern Test Range (AFETR). Payloads include a variety of satellites, spacecraft, and rockets equipped with specific instruments for various scientific and technological missions. These include communications satellites like Starlink; space stations such as the ISS; scientific satellites like the Hubble; Earth observation satellites from companies like Planet Labs, Umbra, and HawkEye 360; GPS; miniature CubeSats for education and research; and military/defense satellites.

Loading next visibility...
STARLINK-1267 details
Identifier
45384, 2020-019AA
Orbit
LEO
Last TLE update16 hours ago
Origin
Flag of USSpaceX/Seattle (US)
ManufacturerSpaceX/Seattle
MissionOperational Commercial Communications
Bus & MotorSTARLINK, Unknown motor
Mass260 kg wet, ~248 kg dry
Launch date (UTC)
2020-03-18 (5 years ago)
Launch vehicle
FALCON 9
Launch site
Air Force Eastern Test Range (AFETR)
Object type
Payload
Rocket body
Debris
Shape & HBRBox + 1 Pan, 8.86 m
Radar Cross Section13.562 m², Large (>1 m²)

Expand to show TLE details & history

TLE from 16 hours ago
0 STARLINK-1267
1 45384U 20019AA  24348.50921549  .00006364  00000-0  44571-3 0  9995
2 45384  53.0543  12.7050 0001501  80.0996 280.0162 15.06404824261990
Epoch: 2024-12-13T12:13Z
Definitive object data (Epoch: 2024-12-13T12:13:16.218Z)
Latitude-0.00004°
Longitude106.71322°
Altitude547.895 km
Speed7.589 km/s
True Right ascension00h 50m 49s
True Declination0° 00' 00"
Sunlit
Object was in daylight at TLE epoch
Visualization TLE readout
Latitude-35.2057°
Longitude71.91942°
Altitude559.006 km
Speed7.581 km/s
Apparent Right ascension18h 59m 45s
Apparent Declination-56° 43' 43"
Sunlit
Object is in daylight
Visualization observer readout
Local Sidereal Time02:29:15
Azimuth225.003° WSW
Elevation-44.16°
Doppler factor1
Orbital elements
Apogee altitude548.507 km
Perigee altitude546.428 km
Semi-major axis6,925.605 km
Eccentricity0.0001501
Inclination53.0543°
RAAN12.705°
Arg. of periapsis80.0996°
True anomaly279.99926°
Mean anomaly280.0162°
Eccentric anomaly280.00773°
Mean motion3.76579 °/min
BSTAR0.00044571
Orbital period95.6 mins
Loading maneuver chart data...
Loading historical data...
Loading historical data...
Loading historical data...
Loading historical data...
Loading historical data...
Loading historical data...
Loading historical data...

STARLINK-1267 Visibility forecast

Observer location: undefined°, undefined

Span
Click to sort rows by Start time (UTC) header in descending order
Start Az.
Max El. time (UTC)
Max El. Az.
Max El.
End time (UTC)
End Az.
7 mins2024-12-14 04:18:27.484Z215.75° SW2024-12-14 04:22:27.484Z104.847° ESE40.238°2024-12-14 04:25:27.484Z57.782° ENE
5 mins2024-12-14 05:59:27.484Z287.583° WNW2024-12-14 06:01:27.484Z325.046° NNW23.114°2024-12-14 06:04:27.484Z24.269° NE
6 mins2024-12-14 11:01:27.484Z323.709° NNW2024-12-14 11:03:27.484Z27.484° NE41.355°2024-12-14 11:07:27.484Z118.093° SE
4 mins2024-12-14 12:41:27.484Z255.865° W2024-12-14 12:42:27.484Z237.774° WSW17.224°2024-12-14 12:45:27.484Z189.74° SSW
|